Weather in Vsevolodo-Vil'va

Russia / Perm Krai     59°13′06″N   57°26′19″E
temp.,
°C
wind,
m/s
gust,
m/s
humid.,
%
clouds,
%
prec.,
mm/h
press.,
hPa
HPBL,
m
28 february, sun
sun2823:00−20ese3128820 0.0 1014518
02:00−22e3118967 0.0 1014376
05:00−23e398936 0.0 1014318
08:00−22e3118930 0.0 1014338
11:00−17ese4108026 0.0 1014516
14:00−13e487829 0.0 1013645
17:00−13e378161 0.0 1014625
20:00−18ene2789100 0.0 1015259
1 march, mon
mon123:00−20ene1290100 0.0 101739
02:00−21nne1291100 0.0 101827
05:00−21ne1292100 0.0 101920
08:00−22ene119297 0.0 101920
11:00−16wsw018562 0.0 1019220
14:00−12wsw228320 0.0 1017400
17:00−12w128653 0.0 1016450
20:00−17s229786 0.0 101520
2 march, tue
tue223:00−18sse249880 0.0 101486
02:00−18s4109694 0.0 1011273
05:00−18s4109596 0.1 1009313
08:00−17s41192100 0.0 1006388
11:00−15s51292100 0.1 1004435
14:00−13s51192100 0.5 1002544
17:00−12s51093100 1.0 1001617
20:00−12s41094100 0.7 1001605
3 march, wed
wed323:00−13s3894100 1.2 1000500
02:00−14s3895100 0.4 1000345
05:00−14sse2795100 0.6 999283
08:00−13sse2596100 0.5 999261
11:00−11sse2493100 0.9 998292
14:00−8ssw1290100 0.4 998415
17:00−8wsw1292100 0.8 998354
20:00−10nw1297100 0.4 99825
4 march, thu
thu423:00−12nw129799 0.6 99930
02:00−13w119892 0.1 99923
05:00−14w229796 0.3 100053
08:00−16wsw1298100 0.3 100029
11:00−12wsw2393100 0.8 1000295
14:00−8wsw3490100 0.3 1000620
17:00−8sw4690100 0.4 999648
20:00−10s31095100 0.1 998460